QPF
0.00 0.00 0.00 0.00 0.00 0.00 0.00 0.00 0.00 0.00 0.00 0.00 0.00 0.00 0.00 0.00 0.00 0.00 0.00 0.00 0.00 0.00 0.00 0.00 0.00 0.00 0.00 0.00 0.00 0.00 0.00 0.00 0.00 0.00 0.00 0.00 0.00 0.00 0.00 0.00 0.00 0.00 0.00 0.00
0.00 0.00 0.00 0.00 0.00 0.00 0.00 0.00 0.00 0.00 0.00 0.00 0.00 0.00 0.00 0.00 0.00 0.00 0.00 0.00 0.00 0.00 0.00 0.00 0.00 0.00 0.00 0.00 0.00 0.00 0.00 0.00 0.00 0.00 0.00 0.00 0.00 0.00 0.00 0.00 0.00 0.00 0.00 0.00
0.00 0.00 0.00 0.00 0.00 0.00 0.00 0.00 0.01 0.01 0.00 0.00 0.00 0.00 0.00 0.00 0.00 0.00 0.00 0.00 0.00 0.00 0.00 0.00 0.00 0.00 0.00 0.00 0.00 0.00 0.00 0.00 0.00 0.00 0.00 0.00 0.00 0.00 0.00 0.00 0.00 0.00 0.00 0.00
0.00 0.00 0.00 0.00 0.00 0.00 0.00 0.00 0.00 0.00 0.00 0.00 0.00 0.00 0.00 0.00 0.00 0.00 0.00 0.00 0.00 0.00 0.00 0.00 0.00 0.00 0.00 0.00 0.00 0.00 0.00 0.00 0.00 0.00 0.00 0.00 0.00 0.00 0.00 0.00 0.00 0.00 0.00 0.00
0.00 0.00 0.00 0.00 0.00 0.01 0.00 0.00 0.00 0.00 0.00 0.00 0.00 0.00 0.00 0.00 0.00 0.00 0.00 0.00 0.00 0.00 0.00 0.00 0.00 0.00 0.00 0.00 0.00 0.00 0.00 0.00 0.00 0.00 0.00 0.00 0.00 0.00 0.00 0.00 0.00 0.00 0.00 0.00
0.00 0.00 0.00 0.00 0.00 0.00 0.00 0.00 0.00 0.00 0.00 0.00 0.00 0.00 0.00 0.00 0.00 0.00 0.00 0.00 0.00 0.00 0.00 0.00 0.00 0.00 0.00 0.00 0.00 0.00 0.00 0.00 0.00 0.00 0.00 0.00 0.00 0.00 0.00 0.00 0.00 0.00 0.00 0.00
0.00 0.00 0.00 0.00 0.00 0.00 0.00 0.00 0.00 0.00 0.00 0.00 0.00 0.00 0.00 0.00 0.00 0.00 0.00 0.00 0.00 0.00 0.00 0.00 0.00 0.00 0.00 0.00 0.00 0.00 0.00 0.00 0.00 0.00 0.00 0.00 0.00 0.00 0.00 0.00 0.00 0.00 0.00 0.00
0.00 0.00 0.00 0.00 0.00 0.00 0.00 0.00 0.00 0.00 0.00 0.00 0.00 0.00 0.00 0.00 0.00 0.00 0.00 0.00 0.00 0.00 0.00 0.00 0.00 0.00 0.00 0.00 0.00 0.00 0.00 0.00 0.00 0.00 0.00 0.00 0.00 0.00 0.00 0.00 0.00 0.00 0.00 0.00
0.00 0.00 0.00 0.00 0.00 0.00 0.00 0.00 0.00 0.00 0.00 0.00 0.00 0.00 0.00 0.00 0.00 0.00 0.00 0.00 0.00 0.00 0.00 0.00 0.00 0.00 0.00 0.00 0.00 0.00 0.00 0.00 0.00 0.00 0.00 0.00 0.00 0.00 0.00 0.00 0.00 0.00 0.00 0.00
0.00 0.00 0.00 0.00 0.00 0.00 0.00 0.00 0.00 0.00 0.00 0.00 0.00 0.00 0.00 0.00 0.00 0.00 0.00 0.00 0.00 0.00 0.00 0.00 0.00 0.00 0.00 0.00 0.00 0.00 0.00 0.00 0.00 0.00 0.00 0.00 0.00 0.00 0.00 0.00 0.00 0.00 0.00 0.00
0.00 0.00 0.00 0.00 0.00 0.00 0.00 0.00 0.00 0.01 0.00 0.00 0.00 0.00 0.00 0.00 0.00 0.00 0.00 0.00 0.00 0.00 0.00 0.00 0.00 0.00 0.00 0.00 0.00 0.00 0.00 0.00 0.00 0.00 0.00 0.00 0.00 0.00 0.00 0.00 0.00 0.00 0.00 0.00
0.00 0.00 0.00 0.00 0.00 0.00 0.00 0.00 0.00 0.00 0.00 0.00 0.00 0.00 0.00 0.00 0.00 0.00 0.00 0.00 0.00 0.00 0.00 0.00 0.00 0.00 0.00 0.00 0.00 0.00 0.00 0.00 0.00 0.00 0.00 0.00 0.00 0.00 0.00 0.00 0.00 0.00 0.00 0.00
0.00 0.00 0.00 0.00 0.00 0.00 0.00 0.00 0.00 0.00 0.00 0.00 0.00 0.00 0.00 0.00 0.00 0.00 0.00 0.00 0.00 0.00 0.00 0.00 0.00 0.00 0.00 0.00 0.00 0.00 0.00 0.00 0.00 0.00 0.00 0.00 0.00 0.00 0.00 0.00 0.00 0.00 0.00 0.00
0.00 0.00 0.00 0.00 0.00 0.00 0.00 0.00 0.00 0.00 0.00 0.00 0.00 0.00 0.00 0.00 0.00 0.00 0.00 0.00 0.00 0.00 0.00 0.00 0.00 0.00 0.00 0.00 0.00 0.00 0.00 0.00 0.00 0.00 0.00 0.00 0.00 0.00 0.00 0.00 0.00 0.00 0.00 0.00
0.00 0.00 0.00 0.00 0.00 0.00 0.00 0.00 0.00 0.00 0.00 0.00 0.00 0.00 0.00 0.00 0.00 0.00 0.00 0.00 0.00 0.00 0.00 0.00 0.00 0.00 0.00 0.00 0.00 0.00 0.00 0.00 0.00 0.00 0.00 0.00 0.00 0.00 0.00 0.00 0.00 0.00 0.00 0.00
0.00 0.00 0.00 0.00 0.00 0.00 0.00 0.00 0.00 0.00 0.00 0.00 0.00 0.00 0.00 0.00 0.00 0.00 0.00 0.00 0.00 0.00 0.00 0.00 0.00 0.00 0.00 0.00 0.00 0.00 0.00 0.00 0.00 0.00 0.00 0.00 0.00 0.00 0.00 0.00 0.00 0.00 0.00 0.00
0.00 0.00 0.00 0.00 0.00 0.00 0.00 0.00 0.00 0.00 0.00 0.00 0.00 0.00 0.00 0.00 0.00 0.00 0.00 0.00 0.00 0.00 0.00 0.00 0.00 0.00 0.00 0.00 0.00 0.00 0.00 0.00 0.00 0.00 0.00 0.00 0.00 0.00 0.00 0.00 0.00 0.00 0.00 0.00
0.00 0.00 0.00 0.00 0.00 0.00 0.00 0.00 0.00 0.00 0.00 0.00 0.00 0.00 0.00 0.00 0.00 0.00 0.00 0.00 0.00 0.00 0.00 0.00 0.00 0.00 0.00 0.00 0.00 0.00 0.00 0.00 0.00 0.00 0.00 0.00 0.00 0.00 0.00 0.00 0.00 0.00 0.00 0.00
0.00 0.00 0.00 0.00 0.00 0.00 0.00 0.00 0.00 0.00 0.00 0.00 0.00 0.00 0.00 0.00 0.00 0.00 0.00 0.00 0.00 0.00 0.00 0.00 0.00 0.00 0.00 0.00 0.00 0.00 0.00 0.00 0.00 0.00 0.00 0.00 0.00 0.00 0.00 0.00 0.00 0.00 0.00 0.00
0.00 0.00 0.00 0.00 0.00 0.00 0.00 0.00 0.00 0.00 0.00 0.00 0.00 0.00 0.00 0.00 0.00 0.00 0.00 0.00 0.00 0.00 0.00 0.00 0.00 0.00 0.00 0.00 0.00 0.00 0.00 0.00 0.00 0.00 0.00 0.00 0.00 0.00 0.00 0.00 0.00 0.00 0.00 0.00
0.00 0.00 0.00 0.00 0.00 0.00 0.00 0.00 0.00 0.00 0.00 0.00 0.00 0.00 0.00 0.00 0.00 0.00 0.00 0.00 0.00 0.00 0.00 0.00 0.00 0.00 0.00 0.00 0.00 0.00 0.00 0.00 0.00 0.00 0.00 0.00 0.00 0.00 0.00 0.00 0.00 0.00 0.00 0.00
0.00 0.00 0.00 0.00 0.00 0.00 0.00 0.00 0.00 0.00 0.00 0.00 0.00 0.00 0.00 0.00 0.00 0.00 0.00 0.00 0.00 0.00 0.00 0.00 0.00 0.00 0.00 0.00 0.00 0.00 0.00 0.00 0.00 0.00 0.00 0.00 0.00 0.00 0.00 0.00 0.00 0.00 0.00 0.00
0.00 0.00 0.00 0.00 0.00 0.00 0.00 0.00 0.00 0.00 0.00 0.00 0.00 0.00 0.00 0.00 0.00 0.00 0.00 0.00 0.00 0.00 0.00 0.00 0.00 0.00 0.00 0.00 0.00 0.00 0.00 0.00 0.00 0.00 0.00 0.00 0.00 0.00 0.00 0.00 0.00 0.00 0.00 0.00
0.00 0.00 0.00 0.00 0.00 0.00 0.00 0.00 0.00 0.00 0.00 0.00 0.00 0.00 0.00 0.00 0.00 0.00 0.00 0.00 0.00 0.00 0.00 0.00 0.00 0.00 0.00 0.00 0.00 0.00 0.00 0.00 0.00 0.00 0.00 0.00 0.00 0.00 0.00 0.00 0.00 0.00 0.00 0.00
0.00 0.00 0.00 0.00 0.00 0.00 0.00 0.00 0.00 0.00 0.00 0.00 0.00 0.00 0.00 0.00 0.00 0.00 0.00 0.00 0.00 0.00 0.00 0.00 0.00 0.00 0.00 0.00 0.00 0.00 0.00 0.00 0.00 0.00 0.00 0.00 0.00 0.00 0.00 0.00 0.00 0.00 0.00 0.00
0.00 0.00 0.00 0.00 0.00 0.00 0.00 0.00 0.00 0.00 0.00 0.00 0.00 0.00 0.00 0.00 0.00 0.00 0.00 0.00 0.00 0.00 0.00 0.00 0.00 0.00 0.00 0.00 0.00 0.00 0.00 0.00 0.00 0.00 0.00 0.00 0.00 0.00 0.00 0.00 0.00 0.00 0.00 0.00
MSLP
1020.48 1020.92 1020.96 1020.90 1021.17 1021.17 1020.82 1020.20 1019.37 1018.35 1017.60 1017.29 1016.48 1015.20 1013.38 1012.09 1011.63 1010.84 1010.22 1010.39 1010.01 1010.08 1010.42 1010.16 1010.15 1010.26 1010.41 1010.40 1010.26 1010.16 1009.88 1009.57 1009.57 1009.64 1009.62 1009.41 1009.26 1009.07 1008.92 1008.87 1008.76 1008.69 1008.43 1008.12
1021.29 1020.79 1020.42 1020.61 1020.68 1020.78 1020.52 1019.93 1019.30 1018.34 1017.77 1017.65 1016.49 1015.24 1013.16 1012.38 1011.24 1010.06 1009.73 1010.56 1010.86 1011.16 1011.10 1010.98 1010.85 1010.82 1010.90 1011.00 1010.93 1010.76 1010.57 1010.12 1009.76 1009.63 1009.47 1009.37 1009.19 1008.88 1008.71 1008.56 1008.38 1008.21 1007.94 1007.63
1022.00 1020.50 1020.59 1020.82 1020.72 1020.27 1020.26 1019.90 1019.25 1019.04 1018.02 1017.76 1017.21 1015.53 1013.29 1012.04 1011.51 1010.44 1010.29 1011.45 1011.73 1011.80 1011.66 1011.59 1011.57 1011.54 1011.44 1011.38 1011.18 1010.89 1010.52 1010.19 1009.90 1009.58 1009.29 1009.06 1008.85 1008.50 1008.20 1007.94 1007.73 1007.58 1007.48 1007.25
1021.60 1021.03 1020.94 1020.80 1020.91 1020.69 1020.03 1019.94 1019.66 1019.63 1019.48 1018.67 1018.21 1017.23 1014.39 1012.81 1012.28 1012.67 1012.49 1012.35 1012.51 1012.61 1012.58 1012.44 1011.79 1011.28 1011.51 1011.42 1011.23 1010.93 1010.54 1010.17 1009.73 1009.44 1009.19 1008.96 1008.70 1008.22 1007.67 1007.49 1007.25 1007.02 1006.85 1006.56
1022.33 1021.52 1021.22 1021.23 1020.96 1020.87 1020.65 1020.53 1020.45 1020.30 1020.46 1020.50 1018.79 1018.63 1015.36 1013.77 1013.49 1013.58 1013.41 1013.12 1013.07 1012.93 1012.77 1012.41 1012.44 1012.19 1011.93 1011.55 1011.18 1010.81 1010.42 1010.01 1009.59 1009.25 1008.97 1008.58 1008.07 1007.72 1007.37 1007.03 1006.72 1006.49 1006.26 1006.05
1023.11 1021.81 1021.59 1021.36 1021.51 1021.58 1021.39 1021.18 1021.10 1021.43 1022.22 1022.66 1020.12 1019.23 1016.34 1014.89 1014.09 1013.55 1013.56 1013.70 1013.32 1012.96 1012.89 1012.89 1012.68 1012.33 1011.67 1011.16 1010.90 1010.59 1010.18 1009.69 1009.25 1008.80 1008.41 1008.07 1007.63 1007.24 1006.91 1006.48 1006.18 1005.83 1005.54 1005.16
1024.62 1022.99 1022.11 1021.94 1022.10 1022.43 1022.60 1022.75 1023.16 1023.38 1023.80 1022.96 1020.23 1018.97 1016.47 1014.91 1014.32 1014.14 1014.21 1013.79 1013.47 1013.36 1013.27 1013.05 1012.70 1012.24 1011.74 1011.16 1010.49 1010.14 1009.70 1009.21 1008.85 1008.40 1007.89 1007.40 1006.94 1006.63 1006.17 1005.82 1005.43 1005.18 1004.80 1004.42
1026.52 1024.39 1023.46 1023.03 1023.40 1023.17 1023.03 1023.82 1024.23 1024.09 1024.45 1022.96 1020.59 1018.84 1016.16 1014.90 1014.46 1014.58 1014.48 1014.06 1013.69 1013.57 1013.34 1013.01 1012.63 1012.13 1011.60 1010.98 1010.25 1009.67 1009.16 1008.54 1008.14 1007.65 1007.06 1006.58 1006.24 1005.81 1005.36 1004.99 1004.61 1004.21 1003.92 1003.59
1028.19 1026.17 1024.50 1023.62 1023.45 1023.49 1023.56 1024.18 1023.82 1024.07 1024.63 1023.98 1021.66 1018.86 1016.40 1015.29 1015.00 1015.02 1014.61 1014.14 1013.91 1013.61 1013.30 1013.00 1012.57 1012.13 1011.44 1010.81 1010.11 1009.32 1008.40 1007.64 1007.13 1006.60 1006.07 1005.49 1005.11 1004.85 1004.45 1004.16 1003.78 1003.12 1002.86 1002.51
1028.54 1026.83 1024.76 1024.00 1024.06 1023.63 1024.14 1024.22 1024.27 1024.70 1024.88 1024.29 1022.36 1020.39 1018.36 1016.96 1016.37 1015.51 1014.82 1014.49 1014.03 1013.70 1013.39 1012.99 1012.39 1011.82 1011.15 1010.39 1009.53 1008.78 1007.87 1006.93 1006.10 1005.44 1004.94 1004.32 1003.90 1003.60 1003.32 1003.13 1002.51 1002.13 1001.78 1001.64
1028.92 1029.28 1026.51 1025.64 1025.00 1025.07 1024.88 1025.21 1025.13 1025.08 1025.50 1025.28 1024.26 1021.24 1018.81 1018.19 1017.36 1016.32 1015.28 1014.48 1014.10 1013.77 1013.68 1013.27 1012.53 1011.72 1010.96 1010.17 1009.23 1008.20 1007.05 1005.96 1004.99 1004.31 1003.68 1003.03 1002.56 1002.22 1001.93 1001.49 1001.19 1000.96 1000.94 1000.64
1028.70 1028.82 1028.22 1026.45 1025.31 1025.57 1025.94 1026.13 1026.43 1026.64 1026.68 1026.19 1025.35 1020.75 1018.74 1017.87 1017.08 1016.39 1015.25 1014.57 1014.12 1014.02 1013.84 1013.12 1012.43 1011.62 1010.59 1009.65 1008.51 1007.26 1005.89 1005.02 1004.08 1003.22 1002.35 1001.58 1001.02 1000.62 1000.25 999.95 999.85 999.94 999.54 999.64
1028.32 1028.90 1029.26 1027.67 1026.96 1026.72 1027.04 1027.24 1027.41 1027.59 1027.24 1026.21 1025.52 1021.63 1018.51 1017.77 1016.67 1015.87 1015.30 1014.55 1014.37 1014.24 1013.72 1012.94 1012.10 1011.27 1010.33 1009.20 1007.85 1006.40 1005.10 1003.90 1002.87 1001.93 1000.98 1000.00 999.31 998.79 998.34 998.21 998.35 998.35 998.30 998.17
1027.37 1028.82 1030.09 1030.01 1028.76 1028.87 1028.87 1027.76 1027.79 1027.92 1027.70 1025.79 1023.92 1021.38 1019.15 1018.06 1016.98 1015.76 1015.09 1014.62 1014.73 1014.38 1013.78 1012.96 1011.94 1011.05 1009.83 1008.63 1007.21 1005.89 1004.45 1003.12 1001.77 1000.61 999.46 998.19 997.27 996.61 996.17 996.11 996.23 996.55 996.74 996.96
1027.91 1029.15 1029.64 1029.28 1028.78 1028.90 1028.40 1027.76 1027.09 1027.61 1026.01 1025.23 1022.43 1021.38 1019.49 1018.33 1017.26 1016.32 1015.81 1015.31 1015.12 1014.35 1013.45 1012.93 1012.04 1010.97 1009.63 1008.10 1006.45 1005.10 1003.75 1002.08 1000.81 999.39 997.90 996.45 995.05 994.12 993.87 993.83 994.07 994.67 995.05 995.16
1028.44 1028.99 1029.44 1029.24 1028.35 1028.43 1028.16 1026.38 1025.95 1025.39 1024.36 1023.40 1022.24 1020.76 1018.96 1017.84 1017.05 1016.35 1016.05 1015.71 1015.55 1014.62 1013.79 1013.04 1011.95 1010.87 1009.48 1007.99 1006.39 1004.75 1003.10 1001.35 999.87 998.24 996.40 994.42 992.49 990.99 990.51 991.13 991.98 992.74 993.11 993.77
1028.47 1029.09 1029.89 1029.68 1028.53 1028.25 1027.25 1025.01 1024.62 1024.17 1023.35 1022.54 1021.74 1020.03 1018.78 1018.00 1017.34 1016.49 1016.26 1016.11 1015.91 1014.87 1014.02 1013.19 1012.16 1010.92 1009.47 1008.02 1006.59 1004.79 1002.80 1000.92 999.21 997.46 995.31 992.84 990.22 987.80 986.97 988.62 990.10 990.89 991.54 992.58
1027.47 1028.68 1029.39 1029.35 1028.28 1027.40 1024.14 1022.92 1023.05 1023.24 1022.08 1021.64 1021.12 1020.08 1019.32 1018.48 1017.45 1016.51 1016.32 1016.23 1015.68 1014.86 1013.83 1013.02 1012.18 1010.67 1009.37 1007.88 1006.23 1004.71 1002.73 1000.86 999.17 997.10 994.78 992.13 989.49 987.21 986.75 987.74 988.78 989.80 990.61 990.92
1026.85 1027.85 1028.63 1029.20 1028.68 1025.57 1022.89 1021.95 1021.95 1022.22 1021.15 1020.44 1020.58 1019.84 1018.97 1018.02 1017.32 1016.30 1016.05 1015.76 1015.48 1014.75 1013.80 1013.10 1012.22 1010.86 1009.60 1008.22 1006.65 1005.20 1003.07 1001.05 999.51 997.51 995.17 992.77 990.41 988.51 987.31 987.54 987.94 988.61 989.23 989.55
1026.80 1027.23 1027.93 1028.26 1027.18 1024.86 1021.81 1020.31 1020.22 1021.05 1020.79 1020.01 1020.26 1020.03 1019.38 1018.12 1017.49 1016.17 1015.47 1015.15 1014.66 1014.08 1013.23 1012.68 1011.92 1010.81 1009.73 1008.45 1007.15 1005.62 1004.00 1001.80 1000.28 998.49 996.40 994.20 991.83 990.04 988.49 987.45 987.32 987.63 988.11 988.64
1027.07 1026.87 1027.15 1026.22 1024.97 1022.46 1020.27 1019.12 1019.61 1020.28 1019.97 1019.22 1019.49 1019.20 1018.70 1018.36 1017.43 1015.88 1015.27 1014.53 1014.19 1013.75 1012.53 1012.46 1011.86 1011.13 1009.99 1009.11 1007.92 1006.31 1004.88 1003.29 1001.36 999.44 997.42 995.13 993.11 991.38 990.03 988.75 987.93 987.70 988.11 988.48
1025.59 1025.80 1025.53 1024.64 1023.35 1021.13 1018.54 1018.60 1018.80 1018.42 1018.13 1018.56 1018.57 1018.16 1018.06 1017.15 1016.20 1015.64 1014.98 1014.32 1013.46 1013.28 1012.03 1012.06 1011.78 1011.44 1010.32 1009.33 1008.55 1007.37 1005.77 1004.76 1002.53 1000.35 998.56 996.68 994.93 993.06 991.63 990.39 989.56 989.04 988.82 988.78
1023.50 1022.54 1022.43 1021.75 1019.65 1018.11 1017.56 1017.31 1016.84 1016.97 1017.28 1017.34 1017.37 1017.23 1017.05 1016.49 1015.75 1015.12 1014.71 1014.12 1013.27 1012.71 1012.21 1011.76 1012.00 1011.44 1011.11 1009.89 1009.31 1008.38 1007.31 1005.58 1003.74 1002.00 1000.22 998.29 996.72 995.19 993.62 992.17 991.48 990.67 990.21 990.09
1020.72 1020.04 1020.15 1019.60 1017.40 1017.06 1016.49 1016.14 1016.32 1016.31 1016.42 1016.45 1016.67 1016.71 1016.56 1016.16 1015.66 1015.02 1014.65 1014.05 1013.52 1012.63 1012.23 1011.77 1012.09 1011.76 1011.77 1010.87 1010.10 1009.64 1008.26 1006.66 1004.95 1003.30 1002.01 1000.28 998.73 997.24 996.13 994.72 993.54 992.53 992.12 991.99
1018.62 1018.44 1017.78 1017.38 1016.20 1015.97 1015.49 1015.31 1015.37 1015.80 1016.15 1016.47 1016.62 1016.56 1016.39 1016.13 1015.75 1015.34 1014.71 1014.37 1013.77 1013.14 1012.56 1012.09 1012.07 1012.41 1012.21 1011.94 1011.00 1010.36 1009.37 1008.00 1006.36 1004.75 1003.42 1002.46 1001.04 999.78 998.69 997.41 996.49 995.26 994.13 993.23
1016.88 1016.04 1016.52 1015.73 1015.05 1015.35 1015.07 1015.22 1015.69 1016.07 1016.34 1016.62 1016.77 1016.52 1016.43 1016.40 1016.11 1015.82 1015.19 1014.85 1014.42 1013.82 1013.08 1012.72 1012.46 1012.49 1012.60 1012.91 1012.23 1011.29 1010.44 1009.37 1008.30 1006.88 1005.55 1004.67 1003.66 1002.45 1001.22 1000.14 998.85 997.51 996.54 995.40
Thickness
5437 5417 5402 5394 5376 5363 5353 5345 5328 5338 5337 5309 5306 5304 5315 5319 5312 5315 5323 5317 5324 5328 5324 5327 5329 5329 5330 5330 5332 5336 5344 5352 5357 5363 5370 5382 5394 5408 5424 5438 5453 5468 5484 5499
5406 5401 5400 5388 5372 5355 5339 5328 5316 5328 5321 5299 5300 5294 5307 5305 5315 5325 5326 5314 5307 5306 5309 5312 5313 5314 5314 5313 5314 5317 5322 5331 5338 5342 5349 5357 5370 5385 5398 5414 5431 5447 5464 5481
5379 5397 5389 5369 5355 5348 5333 5312 5307 5293 5305 5298 5279 5291 5311 5317 5317 5320 5313 5300 5296 5296 5299 5301 5301 5300 5300 5300 5301 5305 5308 5312 5318 5325 5331 5338 5346 5362 5379 5396 5410 5426 5441 5460
5376 5376 5371 5354 5337 5328 5319 5316 5302 5287 5264 5257 5271 5231 5288 5313 5314 5297 5294 5296 5295 5294 5292 5290 5295 5297 5292 5293 5292 5293 5297 5301 5306 5310 5314 5320 5328 5340 5359 5371 5387 5405 5422 5441
5356 5359 5353 5327 5326 5319 5303 5301 5288 5280 5259 5213 5251 5217 5273 5302 5290 5288 5284 5284 5285 5284 5282 5282 5280 5282 5283 5283 5283 5285 5288 5291 5295 5298 5301 5306 5315 5325 5335 5348 5365 5383 5402 5421
5352 5352 5330 5318 5308 5296 5287 5272 5271 5220 5174 5163 5233 5218 5263 5284 5287 5285 5285 5280 5279 5278 5275 5272 5271 5272 5275 5277 5276 5276 5279 5283 5286 5291 5295 5300 5306 5312 5319 5332 5345 5363 5382 5403
5328 5331 5322 5306 5281 5261 5237 5215 5224 5179 5164 5180 5263 5249 5261 5286 5280 5276 5260 5267 5268 5269 5265 5263 5263 5263 5264 5266 5269 5270 5272 5275 5277 5280 5285 5291 5296 5300 5308 5317 5329 5343 5361 5384
5256 5269 5297 5292 5264 5233 5249 5218 5215 5218 5198 5230 5258 5189 5262 5279 5279 5268 5262 5260 5266 5259 5259 5255 5255 5254 5256 5259 5262 5264 5265 5267 5268 5271 5276 5280 5285 5290 5297 5304 5314 5327 5344 5366
5237 5258 5296 5284 5270 5244 5238 5186 5224 5224 5120 5162 5208 5250 5287 5280 5273 5259 5262 5264 5258 5253 5252 5249 5249 5247 5248 5249 5251 5254 5258 5260 5261 5262 5265 5269 5273 5277 5284 5290 5299 5316 5332 5351
5239 5251 5287 5277 5254 5243 5233 5230 5193 5181 5198 5153 5193 5215 5231 5251 5240 5258 5254 5255 5255 5250 5248 5245 5245 5242 5242 5242 5244 5245 5248 5251 5253 5254 5255 5260 5262 5264 5271 5279 5292 5304 5320 5335
5206 5203 5242 5238 5199 5198 5201 5188 5202 5192 5197 5207 5161 5186 5209 5208 5204 5229 5240 5255 5247 5241 5236 5235 5234 5234 5232 5232 5234 5238 5242 5243 5243 5243 5243 5246 5251 5255 5259 5272 5283 5294 5304 5321
5239 5223 5187 5220 5227 5208 5198 5183 5202 5192 5172 5149 5144 5217 5194 5197 5215 5230 5246 5251 5247 5238 5226 5225 5227 5226 5227 5230 5232 5234 5237 5236 5233 5231 5230 5233 5237 5244 5250 5262 5274 5282 5297 5308
5226 5213 5203 5201 5200 5188 5162 5167 5177 5154 5158 5154 5155 5191 5211 5243 5244 5248 5247 5245 5239 5234 5225 5226 5228 5225 5224 5224 5226 5230 5231 5229 5220 5215 5215 5222 5229 5236 5246 5255 5265 5277 5289 5304
5240 5177 5186 5188 5191 5142 5155 5169 5154 5146 5140 5151 5178 5212 5231 5234 5237 5247 5247 5244 5226 5219 5218 5225 5225 5223 5224 5223 5222 5223 5225 5218 5214 5213 5216 5223 5226 5233 5245 5255 5264 5275 5285 5296
5214 5188 5150 5177 5198 5134 5167 5185 5180 5151 5174 5197 5203 5196 5219 5223 5230 5232 5233 5220 5217 5224 5227 5224 5221 5220 5222 5224 5224 5225 5222 5219 5210 5211 5217 5221 5225 5235 5246 5255 5265 5271 5282 5297
5196 5200 5154 5190 5141 5124 5140 5187 5181 5195 5202 5197 5205 5204 5214 5209 5224 5233 5230 5218 5214 5220 5223 5220 5219 5219 5222 5222 5222 5221 5222 5218 5211 5212 5219 5228 5238 5249 5257 5259 5261 5269 5282 5291
5207 5191 5166 5164 5154 5144 5181 5190 5168 5172 5171 5199 5202 5213 5207 5222 5226 5234 5225 5221 5212 5211 5216 5216 5217 5217 5221 5218 5217 5220 5223 5221 5213 5215 5224 5237 5251 5270 5278 5267 5265 5272 5278 5285
5181 5188 5173 5161 5155 5150 5208 5180 5180 5183 5188 5184 5194 5210 5206 5209 5211 5222 5206 5209 5216 5216 5221 5220 5218 5221 5223 5223 5226 5225 5227 5226 5218 5220 5229 5242 5258 5275 5273 5267 5268 5272 5278 5292
5206 5189 5179 5160 5093 5178 5209 5211 5211 5197 5207 5201 5205 5209 5197 5197 5201 5217 5206 5201 5212 5213 5215 5215 5215 5220 5222 5223 5226 5225 5230 5230 5226 5222 5230 5241 5257 5270 5277 5271 5275 5280 5288 5299
5189 5168 5186 5127 5176 5146 5187 5206 5197 5190 5186 5213 5182 5184 5175 5215 5224 5216 5220 5217 5221 5216 5219 5220 5222 5222 5226 5226 5225 5229 5229 5230 5227 5226 5230 5237 5256 5268 5277 5287 5293 5295 5299 5304
5153 5128 5175 5142 5195 5183 5191 5217 5208 5185 5199 5186 5175 5184 5191 5206 5206 5222 5219 5225 5212 5214 5226 5222 5220 5221 5226 5224 5224 5230 5231 5227 5227 5232 5234 5242 5254 5268 5277 5285 5292 5300 5303 5309
5185 5149 5143 5143 5139 5172 5205 5216 5215 5207 5206 5194 5183 5183 5191 5194 5203 5206 5211 5217 5224 5221 5231 5226 5222 5223 5226 5227 5225 5227 5232 5225 5233 5239 5240 5244 5250 5263 5276 5287 5294 5300 5308 5315
5186 5200 5181 5192 5195 5202 5199 5207 5204 5194 5207 5200 5199 5200 5203 5210 5212 5214 5217 5221 5227 5228 5229 5231 5222 5225 5223 5227 5226 5225 5225 5230 5236 5242 5243 5247 5254 5261 5272 5285 5290 5301 5309 5318
5215 5204 5201 5193 5221 5211 5206 5200 5203 5201 5212 5213 5208 5204 5204 5206 5206 5209 5211 5218 5221 5227 5227 5228 5224 5225 5223 5224 5225 5221 5225 5229 5239 5246 5248 5253 5257 5262 5266 5278 5289 5300 5303 5310
5223 5217 5211 5208 5222 5213 5213 5215 5213 5208 5200 5201 5198 5196 5198 5199 5200 5201 5208 5210 5215 5220 5224 5224 5223 5221 5221 5219 5223 5222 5224 5228 5236 5245 5251 5252 5258 5263 5266 5271 5275 5286 5298 5308
5229 5229 5206 5210 5221 5212 5218 5209 5202 5199 5198 5194 5191 5191 5192 5193 5196 5197 5199 5201 5205 5211 5217 5218 5221 5219 5215 5212 5216 5220 5222 5226 5230 5238 5242 5246 5249 5255 5262 5268 5278 5289 5299 5310